Weather History for Ft Lauderdale, FL

Change the Weather History Date:

Sunday, November 11, 2012

  Actual Average Record
Temperature  
Mean Temperature 78 °F 76 °F  
Max Temperature 82 °F 82 °F 90 °F (1952)
Min Temperature 73 °F 70 °F 41 °F (1913)
Degree Days  
Heating Degree Days 0 0  
Month to date heating degree days 2 0  
Since 1 July heating degree days 2 0  
Cooling Degree Days 13 11  
Month to date cooling degree days 73 132  
Year to date cooling degree days 4230 4326  
Growing Degree Days 27 (Base 50)    
Moisture  
Dew Point 58 °F    
Average Humidity 56    
Maximum Humidity 73    
Minimum Humidity 39    
Precipitation  
Precipitation T in 0.12 in 1.78 in (1920)
Month to date precipitation T 1.50  
Year to date precipitation 59.29 57.98  
Snow  
Snow 0.00 in - - ()
Month to date snowfall 0.0  
Since 1 July snowfall 0.0  
Since 1 September snowfall 0.0  
Snow Depth 0.00 in    
Sea Level Pressure  
Sea Level Pressure 30.19 in    
Wind  
Wind Speed 16 mph (East)    
Max Wind Speed 25 mph    
Max Gust Speed 31 mph    
Visibility 10 miles    
Events Rain    
T = Trace of Precipitation, MM = Missing Value Source: NWS Daily Summary

Daily Weather History Graph

Daily Weather History Graph

Search for Another Location

Airport:

Trip Planner

Search our weather history database for the weather conditions in past years. The results will help you decide how hot, cold, wet, or windy it might be!

Date:

Astronomy

Nov. 11, 2012 Rise Set
Actual Time 6:36 AM EST 5:32 PM EST
Civil Twilight 6:12 AM EST 5:56 PM EST
Nautical Twilight 5:44 AM EST 6:24 PM EST
Astronomical Twilight 5:17 AM EST 6:51 PM EST
Moon 4:00 AM EST (11/11) 3:46 PM EST (11/11)
Length of Visible Light 11h 44m
Length of Day
10h 56m
Waning Crescent, 7% of the Moon is Illuminated
Nov 11
Waning Crescent
Nov 13
New
Nov 20
First Quarter
Nov 28
Full
Dec 6
Last Quarter

Hourly Weather History & Observations

Time (EST) Temp. Heat Index Dew Point Humidity Pressure Visibility Wind Dir Wind Speed Gust Speed Precip Events Conditions
12:53 AM 73.9 °F - 59.0 °F 59% 30.19 in 10.0 mi East 16.1 mph 24.2 mph N/A   Mostly Cloudy
1:53 AM 75.0 °F - 55.0 °F 50% 30.17 in 10.0 mi East 16.1 mph 25.3 mph N/A   Overcast
2:53 AM 73.9 °F - 54.0 °F 50% 30.16 in 10.0 mi East 13.8 mph 24.2 mph N/A   Mostly Cloudy
3:53 AM 75.0 °F - 53.1 °F 46% 30.16 in 10.0 mi East 12.7 mph - N/A   Overcast
4:53 AM 73.9 °F - 54.0 °F 50% 30.17 in 10.0 mi East 11.5 mph - N/A   Mostly Cloudy
5:53 AM 75.0 °F - 59.0 °F 57% 30.18 in 10.0 mi East 15.0 mph - N/A   Overcast
6:53 AM 73.9 °F - 61.0 °F 64% 30.19 in 10.0 mi East 17.3 mph 27.6 mph 0.00 in Rain Light Rain
7:53 AM 75.9 °F - 57.9 °F 54% 30.21 in 10.0 mi East 17.3 mph - 0.00 in   Mostly Cloudy
8:53 AM 78.1 °F - 55.9 °F 46% 30.22 in 10.0 mi East 17.3 mph 25.3 mph N/A   Scattered Clouds
9:53 AM 80.1 °F 80.0 °F 54.0 °F 40% 30.23 in 10.0 mi East 16.1 mph 24.2 mph N/A   Scattered Clouds
10:53 AM 81.0 °F 81.1 °F 57.9 °F 45% 30.23 in 10.0 mi East 15.0 mph 25.3 mph N/A   Scattered Clouds
11:53 AM 80.1 °F 80.7 °F 59.0 °F 48% 30.22 in 10.0 mi East 15.0 mph - N/A   Mostly Cloudy
12:53 PM 79.0 °F - 57.0 °F 47% 30.19 in 10.0 mi East 19.6 mph 24.2 mph N/A   Scattered Clouds
1:53 PM 81.0 °F 81.3 °F 59.0 °F 47% 30.18 in 10.0 mi East 17.3 mph 25.3 mph N/A   Mostly Cloudy
2:53 PM 80.1 °F 80.9 °F 60.1 °F 50% 30.18 in 10.0 mi East 16.1 mph - N/A   Scattered Clouds
3:53 PM 79.0 °F - 57.9 °F 48% 30.17 in 10.0 mi East 18.4 mph 23.0 mph N/A   Scattered Clouds
4:53 PM 78.1 °F - 55.9 °F 46% 30.17 in 10.0 mi East 13.8 mph 21.9 mph N/A   Partly Cloudy
5:53 PM 75.9 °F - 57.9 °F 54% 30.18 in 10.0 mi East 12.7 mph - N/A   Partly Cloudy
6:53 PM 75.9 °F - 60.1 °F 58% 30.19 in 10.0 mi East 17.3 mph 21.9 mph N/A   Scattered Clouds
7:53 PM 77.0 °F - 59.0 °F 54% 30.20 in 10.0 mi East 15.0 mph 24.2 mph N/A   Scattered Clouds
8:53 PM 75.9 °F - 62.1 °F 62% 30.20 in 10.0 mi East 18.4 mph - N/A   Scattered Clouds
9:53 PM 73.9 °F - 64.0 °F 71% 30.20 in 10.0 mi ESE 13.8 mph - 0.00 in   Mostly Cloudy
10:53 PM 75.0 °F - 64.0 °F 69% 30.20 in 10.0 mi East 16.1 mph 27.6 mph N/A   Mostly Cloudy
11:53 PM 75.9 °F - 63.0 °F 64% 30.18 in 10.0 mi ESE 19.6 mph 28.8 mph 0.00 in   Scattered Clouds